Вернуться в каталог

STARLINK-11145

АктивенСвязьVLEO
NORAD 59945·PAYLOAD·🇺🇸 United States

Запущен Jun 5, 2024 с Cape Canaveral Space Force Station

Loading…

Ближайшие Пролёты (ближайшие 24 часа)

TLE

СвежийSource: CelesTrak SupGP

Эпоха: Sep 15, 2026, 02:51 UTC

1 59945C 24107A   26258.11923611 -.00102540  00000+0 -84585-3 0  2587
2 59945  53.1576  37.7559 0000909  82.8488 283.1959 15.69727602    16

Отслеживайте STARLINK-11145 в реальном времени с AllMySat

Download on the App Store